METEOR 2-12 DEB

Satellite information

Favourite Embed

Satellite Type and Status

DEBRISIN ORBIT

Key statistics

Satellite METEOR 2-12 DEB at a glance.

Uptime

14816

Days in orbit

Revolutions

≈ 14.0

Per day

Orbit

LEO

Low Earth Orbit

Inclination

82.5

Latest

Satellite identification and parameters

Extended collection of information and parameters for METEOR 2-12 DEB.

Object identification

Identified? True

Debris? True

Object name: METEOR 2-12 DEB

International designator: 1985-013G

Object number (NORAD): 59996

Object ID (CCSDS): 59996

Country: COMMONWEALTH OF INDEPENDENT STATES (CIS)

Current information (Y/N): Y

RCS size: SMALL

Orbital parameters

Period: 102.611 minutes

Inclination: 82.5308 deg

SMA: 7260.313 km

Apoapsis: 892.419 km

Periapsis: 871.937 km

RAAN: 153.474 deg

Eccentricy: 0.00141054

Argument of periapsis: 309.1695 deg

Mean anomaly: 228.9408 deg

Mean motion: 14.03362026 rev/day

Mean motion (dot): 0.00001514 rev/day2

B* drag term: 0.0009590949 1/REarth

Two-line elements (TLE)

Creation date: Aug. 24, 2025, 6:52 p.m.

Reference frame: TEME

Reference center: EARTH

Epoch: Aug. 24, 2025, 1:18 p.m. UTC

TLE line 0: 0 METEOR 2-12 DEB

TLE line 1: 1 59996U 85013G 25236.55484532 .00001514 00000-0 95909-3 0 9995

TLE line 2: 2 59996 82.5308 153.4740 0014105 309.1695 228.9408 14.03362026575821

Live tracking on map

Real-time ground track for satellite METEOR 2-12 DEB.

In-orbit conjunctions

A list of the most updated potential collisions computed for object METEOR 2-12 DEB.

Target Orbit TCA Probability of collision Miss distance Type
COSMOS 1275 DEB LEO 2025-07-28 06:06:28 0.0001029455 189.0 (m) DEBRIS
IRS 1B SSO 2025-03-29 09:51:28 0.0002577717 311.0 (m) PAYLOAD
FENGYUN 1C DEB SSO 2025-03-25 13:30:02 0.000178735 180.0 (m) DEBRIS
CZ-4 DEB SSO 2025-01-02 21:55:55 0.0001359485 505.0 (m) DEBRIS
COSMOS 1275 DEB LEO 2024-11-11 05:05:23 0.0001642464 903.0 (m) DEBRIS

Associated space launch

Film-return reconnaissance satellite

METEOR 2-12 DEB was lifted into orbit during the mission ‘Soyuz U | Zenit-8 11’, on board a Soyuz U space rocket.

The launch took place on Feb. 6, 1985, 11 a.m. from 16/2.

For more information about the launch, click the button.

Launch to space Soyuz U | Zenit-8 11
Soyuz U | Zenit-8 11

Agency: N/A

Status: Launch Successful

Launch date: Feb. 6, 1985, 11 a.m. UTC

Rocket: Soyuz U

Launch pad: 16/2

Location: Plesetsk Cosmodrome, Russian Federation

...

Latest news about this satellite

There are no fresh news available about this satellite. Check back as we update our databases every day.


Newsletter sign-up

Weekly statistics, charts and insights to help you stay on top of the space industry.